Time,TemperatureF,DewpointF,PressureIn,WindDirection,WindDirectionDegrees,WindSpeedMPH,WindSpeedGustMPH,Humidity,HourlyPrecipIn,Conditions,Clouds,dailyrainin,SolarRadiationWatts/m^2,SoftwareType,DateUTC
2013-01-20 00:02:00,66.0,50.0,-100.00,East,82,22.0,30.0,57,0.00,,,-99.99,1.000000,,2013-01-20 10:02:00,
2013-01-20 00:12:00,66.0,50.0,-100.00,East,82,22.0,30.0,57,0.00,,,-99.99,1.000000,,2013-01-20 10:12:00,
2013-01-20 00:22:00,66.0,50.0,-100.00,East,82,22.0,30.0,57,0.00,,,-99.99,1.000000,,2013-01-20 10:22:00,
2013-01-20 00:32:00,66.0,50.0,-100.00,East,82,22.0,30.0,57,0.00,,,-99.99,1.000000,,2013-01-20 10:32:00,
2013-01-20 00:52:00,66.0,52.0,-100.00,East,82,20.0,32.0,61,0.00,,,0.00,1.000000,,2013-01-20 10:52:00,
2013-01-20 01:02:00,66.0,52.0,-100.00,East,82,20.0,32.0,61,0.00,,,0.00,1.000000,,2013-01-20 11:02:00,
2013-01-20 01:12:00,66.0,52.0,-100.00,East,82,20.0,32.0,61,0.00,,,0.00,1.000000,,2013-01-20 11:12:00,
2013-01-20 01:22:00,66.0,52.0,-100.00,East,82,20.0,32.0,61,0.00,,,0.00,1.000000,,2013-01-20 11:22:00,
2013-01-20 01:32:00,66.0,52.0,-100.00,East,82,20.0,32.0,61,0.00,,,0.00,1.000000,,2013-01-20 11:32:00,
2013-01-20 02:03:00,65.0,53.0,-100.00,East,81,23.0,35.0,64,0.00,,,0.00,1.000000,,2013-01-20 12:03:00,
2013-01-20 02:12:00,65.0,53.0,-100.00,East,81,23.0,35.0,64,0.00,,,0.00,1.000000,,2013-01-20 12:12:00,
2013-01-20 02:22:00,65.0,53.0,-100.00,East,81,23.0,35.0,64,0.00,,,0.00,1.000000,,2013-01-20 12:22:00,
2013-01-20 02:32:00,65.0,53.0,-100.00,East,81,23.0,35.0,64,0.00,,,0.00,1.000000,,2013-01-20 12:32:00,
2013-01-20 02:53:00,65.0,50.0,-100.00,East,85,21.0,32.0,58,0.00,,,0.00,1.000000,,2013-01-20 12:53:00,
2013-01-20 03:02:00,65.0,50.0,-100.00,East,85,21.0,32.0,58,0.00,,,0.00,1.000000,,2013-01-20 13:02:00,
2013-01-20 03:12:00,65.0,50.0,-100.00,East,85,21.0,32.0,58,0.00,,,0.00,1.000000,,2013-01-20 13:12:00,
2013-01-20 03:23:00,65.0,50.0,-100.00,East,85,21.0,32.0,58,0.00,,,0.00,1.000000,,2013-01-20 13:23:00,
2013-01-20 03:32:00,65.0,50.0,-100.00,East,85,21.0,32.0,58,0.00,,,0.00,1.000000,,2013-01-20 13:32:00,
2013-01-20 03:53:00,66.0,50.0,-100.00,East,82,22.0,34.0,57,0.00,,,-99.99,1.000000,,2013-01-20 13:53:00,
2013-01-20 04:02:00,66.0,50.0,-100.00,East,82,22.0,34.0,57,0.00,,,-99.99,1.000000,,2013-01-20 14:02:00,
2013-01-20 04:12:00,66.0,50.0,-100.00,East,82,22.0,34.0,57,0.00,,,-99.99,1.000000,,2013-01-20 14:12:00,
2013-01-20 04:22:00,66.0,50.0,-100.00,East,82,22.0,34.0,57,0.00,,,-99.99,1.000000,,2013-01-20 14:22:00,
2013-01-20 04:32:00,66.0,50.0,-100.00,East,82,22.0,34.0,57,0.00,,,-99.99,1.000000,,2013-01-20 14:32:00,
2013-01-20 04:53:00,67.0,52.0,-100.00,East,80,20.0,32.0,58,0.00,,,0.00,1.000000,,2013-01-20 14:53:00,
2013-01-20 05:03:00,67.0,52.0,-100.00,East,80,20.0,32.0,58,0.00,,,0.00,1.000000,,2013-01-20 15:03:00,
2013-01-20 05:12:00,67.0,52.0,-100.00,East,80,20.0,32.0,58,0.00,,,0.00,1.000000,,2013-01-20 15:12:00,
2013-01-20 05:22:00,67.0,52.0,-100.00,East,80,20.0,32.0,58,0.00,,,0.00,1.000000,,2013-01-20 15:22:00,
2013-01-20 05:32:00,67.0,52.0,-100.00,East,80,20.0,32.0,58,0.00,,,0.00,1.000000,,2013-01-20 15:32:00,
2013-01-20 06:02:00,64.0,50.0,-100.00,ENE,74,19.0,28.0,60,0.00,,,0.00,1.000000,,2013-01-20 16:02:00,
2013-01-20 06:12:00,64.0,50.0,-100.00,ENE,74,19.0,28.0,60,0.00,,,0.00,1.000000,,2013-01-20 16:12:00,
2013-01-20 06:22:00,64.0,50.0,-100.00,ENE,74,19.0,28.0,60,0.00,,,0.00,1.000000,,2013-01-20 16:22:00,
2013-01-20 06:32:00,64.0,50.0,-100.00,ENE,74,19.0,28.0,60,0.00,,,0.00,1.000000,,2013-01-20 16:32:00,
2013-01-20 07:03:00,65.0,50.0,-100.00,East,82,20.0,36.0,59,0.00,,,0.00,1.000000,,2013-01-20 17:03:00,
2013-01-20 07:12:00,65.0,50.0,-100.00,East,82,20.0,36.0,59,0.00,,,0.00,1.000000,,2013-01-20 17:12:00,
2013-01-20 07:22:00,65.0,50.0,-100.00,East,82,20.0,36.0,59,0.00,,,0.00,1.000000,,2013-01-20 17:22:00,
2013-01-20 07:32:00,65.0,50.0,-100.00,East,82,20.0,36.0,59,0.00,,,0.00,1.000000,,2013-01-20 17:32:00,
2013-01-20 08:02:00,65.0,50.0,-100.00,East,82,18.0,31.0,58,0.00,,,0.00,8.000000,,2013-01-20 18:02:00,
2013-01-20 08:12:00,65.0,50.0,-100.00,East,82,18.0,31.0,58,0.00,,,0.00,8.000000,,2013-01-20 18:12:00,
2013-01-20 08:23:00,65.0,50.0,-100.00,East,82,18.0,31.0,58,0.00,,,0.00,8.000000,,2013-01-20 18:23:00,
2013-01-20 08:33:00,65.0,50.0,-100.00,East,82,18.0,31.0,58,0.00,,,0.00,8.000000,,2013-01-20 18:33:00,
2013-01-20 08:53:00,70.0,52.0,-100.00,ENE,75,19.0,29.0,53,0.00,,,0.00,209.000000,,2013-01-20 18:53:00,
2013-01-20 09:02:00,70.0,52.0,-100.00,ENE,75,19.0,29.0,53,0.00,,,0.00,209.000000,,2013-01-20 19:02:00,
2013-01-20 09:12:00,70.0,52.0,-100.00,ENE,75,19.0,29.0,53,0.00,,,0.00,209.000000,,2013-01-20 19:12:00,
2013-01-20 09:22:00,70.0,52.0,-100.00,ENE,75,19.0,29.0,53,0.00,,,0.00,209.000000,,2013-01-20 19:22:00,
2013-01-20 09:33:00,70.0,52.0,-100.00,ENE,75,19.0,29.0,53,0.00,,,0.00,209.000000,,2013-01-20 19:33:00,
2013-01-20 09:53:00,74.0,53.0,-100.00,East,80,17.0,26.0,48,0.00,,,-99.99,432.000000,,2013-01-20 19:53:00,
2013-01-20 10:02:00,74.0,53.0,-100.00,East,80,17.0,26.0,48,0.00,,,-99.99,432.000000,,2013-01-20 20:02:00,
2013-01-20 10:12:00,74.0,53.0,-100.00,East,80,17.0,26.0,48,0.00,,,-99.99,432.000000,,2013-01-20 20:12:00,
2013-01-20 10:22:00,74.0,53.0,-100.00,East,80,17.0,26.0,48,0.00,,,-99.99,432.000000,,2013-01-20 20:22:00,
2013-01-20 10:32:00,74.0,53.0,-100.00,East,80,17.0,26.0,48,0.00,,,-99.99,432.000000,,2013-01-20 20:32:00,
2013-01-20 10:53:00,76.0,50.0,-100.00,ENE,73,16.0,25.0,40,0.00,,,0.00,616.000000,,2013-01-20 20:53:00,
2013-01-20 11:03:00,76.0,50.0,-100.00,ENE,73,16.0,25.0,40,0.00,,,0.00,616.000000,,2013-01-20 21:03:00,
2013-01-20 11:13:00,76.0,50.0,-100.00,ENE,73,16.0,25.0,40,0.00,,,0.00,616.000000,,2013-01-20 21:13:00,
2013-01-20 11:22:00,76.0,50.0,-100.00,ENE,73,16.0,25.0,40,0.00,,,0.00,616.000000,,2013-01-20 21:22:00,
2013-01-20 11:33:00,76.0,50.0,-100.00,ENE,73,16.0,25.0,40,0.00,,,0.00,616.000000,,2013-01-20 21:33:00,
2013-01-20 12:03:00,77.0,50.0,-100.00,ENE,72,14.0,26.0,39,0.00,,,0.00,744.000000,,2013-01-20 22:03:00,
2013-01-20 12:12:00,77.0,50.0,-100.00,ENE,72,14.0,26.0,39,0.00,,,0.00,744.000000,,2013-01-20 22:12:00,
2013-01-20 12:22:00,77.0,50.0,-100.00,ENE,72,14.0,26.0,39,0.00,,,0.00,744.000000,,2013-01-20 22:22:00,
2013-01-20 12:32:00,77.0,50.0,-100.00,ENE,72,14.0,26.0,39,0.00,,,0.00,744.000000,,2013-01-20 22:32:00,
2013-01-20 12:53:00,78.0,51.0,-100.00,East,86,20.0,27.0,39,0.00,,,0.00,812.000000,,2013-01-20 22:53:00,
2013-01-20 13:03:00,78.0,51.0,-100.00,East,86,20.0,27.0,39,0.00,,,0.00,812.000000,,2013-01-20 23:03:00,
2013-01-20 13:12:00,78.0,51.0,-100.00,East,86,20.0,27.0,39,0.00,,,0.00,812.000000,,2013-01-20 23:12:00,
2013-01-20 13:22:00,78.0,51.0,-100.00,East,86,20.0,27.0,39,0.00,,,0.00,812.000000,,2013-01-20 23:22:00,
2013-01-20 13:33:00,78.0,51.0,-100.00,East,86,20.0,27.0,39,0.00,,,0.00,812.000000,,2013-01-20 23:33:00,
2013-01-20 14:03:00,77.0,51.0,-100.00,East,79,22.0,29.0,40,0.00,,,0.00,817.000000,,2013-01-21 00:03:00,
2013-01-20 14:13:00,77.0,51.0,-100.00,East,79,22.0,29.0,40,0.00,,,0.00,817.000000,,2013-01-21 00:13:00,
2013-01-20 14:22:00,77.0,51.0,-100.00,East,79,22.0,29.0,40,0.00,,,0.00,817.000000,,2013-01-21 00:22:00,
2013-01-20 14:32:00,77.0,51.0,-100.00,East,79,22.0,29.0,40,0.00,,,0.00,817.000000,,2013-01-21 00:32:00,
2013-01-20 14:53:00,78.0,50.0,-100.00,ENE,76,20.0,30.0,38,0.00,,,0.00,730.000000,,2013-01-21 00:53:00,
2013-01-20 15:03:00,78.0,50.0,-100.00,ENE,76,20.0,30.0,38,0.00,,,0.00,730.000000,,2013-01-21 01:03:00,
2013-01-20 15:12:00,78.0,50.0,-100.00,ENE,76,20.0,30.0,38,0.00,,,0.00,730.000000,,2013-01-21 01:12:00,
2013-01-20 15:22:00,78.0,50.0,-100.00,ENE,76,20.0,30.0,38,0.00,,,0.00,730.000000,,2013-01-21 01:22:00,
2013-01-20 15:32:00,78.0,50.0,-100.00,ENE,76,20.0,30.0,38,0.00,,,0.00,730.000000,,2013-01-21 01:32:00,
2013-01-20 16:03:00,78.0,52.0,-100.00,East,85,19.0,27.0,41,0.00,,,0.00,590.000000,,2013-01-21 02:03:00,
2013-01-20 16:12:00,78.0,52.0,-100.00,East,85,19.0,27.0,41,0.00,,,0.00,590.000000,,2013-01-21 02:12:00,
2013-01-20 16:22:00,78.0,52.0,-100.00,East,85,19.0,27.0,41,0.00,,,0.00,590.000000,,2013-01-21 02:22:00,
2013-01-20 16:32:00,78.0,52.0,-100.00,East,85,19.0,27.0,41,0.00,,,0.00,590.000000,,2013-01-21 02:32:00,
2013-01-20 16:53:00,76.0,52.0,-100.00,East,86,21.0,27.0,44,0.00,,,0.00,403.000000,,2013-01-21 02:53:00,
2013-01-20 17:02:00,76.0,52.0,-100.00,East,86,21.0,27.0,44,0.00,,,0.00,403.000000,,2013-01-21 03:02:00,
2013-01-20 17:12:00,76.0,52.0,-100.00,East,86,21.0,27.0,44,0.00,,,0.00,403.000000,,2013-01-21 03:12:00,
2013-01-20 17:23:00,76.0,52.0,-100.00,East,86,21.0,27.0,44,0.00,,,0.00,403.000000,,2013-01-21 03:23:00,
2013-01-20 17:32:00,76.0,52.0,-100.00,East,86,21.0,27.0,44,0.00,,,0.00,403.000000,,2013-01-21 03:32:00,
2013-01-20 17:53:00,72.0,53.0,-100.00,East,84,22.0,31.0,51,0.00,,,0.00,189.000000,,2013-01-21 03:53:00,
2013-01-20 18:02:00,72.0,53.0,-100.00,East,84,22.0,31.0,51,0.00,,,0.00,189.000000,,2013-01-21 04:02:00,
2013-01-20 18:12:00,72.0,53.0,-100.00,East,84,22.0,31.0,51,0.00,,,0.00,189.000000,,2013-01-21 04:12:00,
2013-01-20 18:22:00,72.0,53.0,-100.00,East,84,22.0,31.0,51,0.00,,,0.00,189.000000,,2013-01-21 04:22:00,
2013-01-20 18:32:00,72.0,53.0,-100.00,East,84,22.0,31.0,51,0.00,,,0.00,189.000000,,2013-01-21 04:32:00,
2013-01-20 18:53:00,68.0,54.0,-100.00,East,96,18.0,30.0,62,0.00,,,0.00,19.000000,,2013-01-21 04:53:00,
2013-01-20 19:03:00,68.0,54.0,-100.00,East,96,18.0,30.0,62,0.00,,,0.00,19.000000,,2013-01-21 05:03:00,
2013-01-20 19:12:00,68.0,54.0,-100.00,East,96,18.0,30.0,62,0.00,,,0.00,19.000000,,2013-01-21 05:12:00,
2013-01-20 19:22:00,68.0,54.0,-100.00,East,96,18.0,30.0,62,0.00,,,0.00,19.000000,,2013-01-21 05:22:00,
2013-01-20 19:33:00,68.0,54.0,-100.00,East,96,18.0,30.0,62,0.00,,,0.00,19.000000,,2013-01-21 05:33:00,
2013-01-20 19:53:00,67.0,54.0,-100.00,East,83,18.0,27.0,64,0.00,,,0.00,1.000000,,2013-01-21 05:53:00,
2013-01-20 20:02:00,67.0,54.0,-100.00,East,83,18.0,27.0,64,0.00,,,0.00,1.000000,,2013-01-21 06:02:00,
2013-01-20 20:12:00,67.0,54.0,-100.00,East,83,18.0,27.0,64,0.00,,,0.00,1.000000,,2013-01-21 06:12:00,
2013-01-20 20:23:00,67.0,54.0,-100.00,East,83,18.0,27.0,64,0.00,,,0.00,1.000000,,2013-01-21 06:23:00,
2013-01-20 20:32:00,67.0,54.0,-100.00,East,83,18.0,27.0,64,0.00,,,0.00,1.000000,,2013-01-21 06:32:00,
2013-01-20 20:53:00,65.0,53.0,-100.00,ESE,113,17.0,24.0,66,0.00,,,0.00,1.000000,,2013-01-21 06:53:00,
2013-01-20 21:03:00,65.0,53.0,-100.00,ESE,113,17.0,24.0,66,0.00,,,0.00,1.000000,,2013-01-21 07:03:00,
2013-01-20 21:12:00,65.0,53.0,-100.00,ESE,113,17.0,24.0,66,0.00,,,0.00,1.000000,,2013-01-21 07:12:00,
2013-01-20 21:22:00,65.0,53.0,-100.00,ESE,113,17.0,24.0,66,0.00,,,0.00,1.000000,,2013-01-21 07:22:00,
2013-01-20 21:32:00,65.0,53.0,-100.00,ESE,113,17.0,24.0,66,0.00,,,0.00,1.000000,,2013-01-21 07:32:00,
2013-01-20 21:53:00,65.0,55.0,-100.00,East,92,15.0,27.0,69,0.00,,,0.00,1.000000,,2013-01-21 07:53:00,
2013-01-20 22:02:00,65.0,55.0,-100.00,East,92,15.0,27.0,69,0.00,,,0.00,1.000000,,2013-01-21 08:02:00,
2013-01-20 22:13:00,65.0,55.0,-100.00,East,92,15.0,27.0,69,0.00,,,0.00,1.000000,,2013-01-21 08:13:00,
2013-01-20 22:22:00,65.0,55.0,-100.00,East,92,15.0,27.0,69,0.00,,,0.00,1.000000,,2013-01-21 08:22:00,
2013-01-20 22:32:00,65.0,55.0,-100.00,East,92,15.0,27.0,69,0.00,,,0.00,1.000000,,2013-01-21 08:32:00,
2013-01-20 22:53:00,65.0,55.0,-100.00,East,96,15.0,21.0,69,0.00,,,0.00,1.000000,,2013-01-21 08:53:00,
2013-01-20 23:02:00,65.0,55.0,-100.00,East,96,15.0,21.0,69,0.00,,,0.00,1.000000,,2013-01-21 09:02:00,
2013-01-20 23:12:00,65.0,55.0,-100.00,East,96,15.0,21.0,69,0.00,,,0.00,1.000000,,2013-01-21 09:12:00,
2013-01-20 23:22:00,65.0,55.0,-100.00,East,96,15.0,21.0,69,0.00,,,0.00,1.000000,,2013-01-21 09:22:00,
2013-01-20 23:32:00,65.0,55.0,-100.00,East,96,15.0,21.0,69,0.00,,,0.00,1.000000,,2013-01-21 09:32:00,
2013-01-20 23:53:00,64.0,53.0,-100.00,East,96,18.0,24.0,68,0.00,,,-99.99,1.000000,,2013-01-21 09:53:00,